Location: Mexico
(19.4000°N, 99.1500°W)
Time: 02:05:17
(UTC-06:00)

ISS - Pass Details

Date: 18 November 2017
Orbit: 402 x 407 km, 51.6° (Epoch: 21 November)

Event Time Altitude Azimuth Distance (km) Brightness Sun altitude
Exits shadow 06:14:43 - 337° (NNW) 2,181 -0.5 -7.9°
Reaches altitude 10° 06:16:43 10° 350° (N) 1,445 -1.3 -7.5°
Maximum altitude 06:19:27 25° 48° (NE) 852 -1.8 -6.8°
Drops below altitude 10° 06:22:11 10° 106° (ESE) 1,443 0.8 -6.2°
Sets 06:24:29 0° 120° (ESE) 2,300 2.1 -5.7°
